Terminal Aerodrome Forecast
Issued by NWS Charleston, WV

Current Version | Previous Version | Graphics & Text | Print | Product List | Glossary On
Versions: 1 2 3 4 5 6 7 8 9 10 11 12 13 14 15 16 17 18 19 20 21 22
000
FTUS41 KRLX 270500
TAFEKN
TAF
KEKN 270524Z 2706/2806 00000KT P6SM BKN200
     FM271900 22004KT P6SM BKN060
     FM280200 00000KT P6SM BKN045=

USA.gov is the U.S. government's official web portal to all federal, state and local government web resources and services.